Toledo Metcalf, OH

3:20 PM EDT on May 22, 2017 (GMT -0400)
Metcalf

Weather History for KTDZ - August, 2013

Change the Weather History Date:

Tuesday, August 6, 2013

  Actual Average (KTOL) Record (KTOL)
Temperature  
Mean Temperature 73 °F -  
Max Temperature 82 °F 81 °F 103 °F (1918)
Min Temperature 64 °F 58 °F 45 °F (1994)
Cooling Degree Days 8    
Growing Degree Days 23 (Base 50)    
Moisture  
Dew Point 61 °F    
Average Humidity 73    
Maximum Humidity 90    
Minimum Humidity 52    
Precipitation  
Precipitation 0.01 in - - ()
Sea Level Pressure  
Sea Level Pressure 29.95 in    
Wind  
Wind Speed 6 mph (South)    
Max Wind Speed 13 mph    
Max Gust Speed 20 mph    
Visibility 10 miles    
Events Rain    
Averages and records for this station are not official NWS values.
T = Trace of Precipitation, MM = Missing Value Source: NWS Daily Summary

Daily Weather History Graph

Daily Weather History Graph

Search for Another Location

Airport or City:

Trip Planner

Search our weather history database for the weather conditions in past years. The results will help you decide how hot, cold, wet, or windy it might be!

Date:

Astronomy

Aug. 06, 2013 Rise Set
Actual Time 6:33 AM EDT 8:45 PM EDT
Civil Twilight 6:03 AM EDT 9:15 PM EDT
Nautical Twilight 5:25 AM EDT 9:53 PM EDT
Astronomical Twilight 4:43 AM EDT 10:34 PM EDT
Moon 6:24 AM EDT (8/6) 8:18 PM EDT (8/6)
Length of Visible Light 15h 12m
Length of Day
14h 11m
Waning Crescent, 0% of the Moon is Illuminated
Aug 6
Waning Crescent
Aug 6
New
Aug 14
First Quarter
Aug 20
Full
Aug 28
Last Quarter

Hourly Weather History & Observations

Time (EDT) Temp. Heat Index Dew Point Humidity Pressure Visibility Wind Dir Wind Speed Gust Speed Precip Events Conditions
12:53 AM 66.0 °F - 59.0 °F 78% 29.99 in 10.0 mi SE 5.8 mph - N/A   Overcast
1:53 AM 66.0 °F - 60.1 °F 81% 29.98 in 10.0 mi SSE 5.8 mph - N/A   Overcast
2:53 AM 64.9 °F - 61.0 °F 87% 29.97 in 10.0 mi South 4.6 mph - 0.00 in Rain Light Rain
3:53 AM 64.9 °F - 61.0 °F 87% 29.97 in 10.0 mi SSE 5.8 mph - 0.01 in   Overcast
4:53 AM 64.0 °F - 61.0 °F 90% 29.96 in 10.0 mi SSE 4.6 mph - N/A   Overcast
5:53 AM 64.0 °F - 61.0 °F 90% 29.96 in 10.0 mi Calm Calm - N/A   Overcast
6:53 AM 64.0 °F - 60.1 °F 87% 29.96 in 10.0 mi SE 3.5 mph - N/A   Overcast
7:53 AM 64.9 °F - 60.1 °F 84% 29.97 in 10.0 mi SSE 5.8 mph - N/A   Overcast
8:53 AM 66.9 °F - 60.1 °F 79% 29.98 in 10.0 mi South 5.8 mph - N/A   Overcast
9:53 AM 69.1 °F - 59.0 °F 70% 29.97 in 10.0 mi South 6.9 mph - N/A   Overcast
10:53 AM 72.0 °F - 60.1 °F 66% 29.97 in 10.0 mi South 11.5 mph - N/A   Mostly Cloudy
11:53 AM 72.0 °F - 60.1 °F 66% 29.97 in 10.0 mi South 8.1 mph - N/A   Overcast
12:53 PM 75.0 °F - 62.1 °F 64% 29.96 in 10.0 mi South 8.1 mph - N/A   Overcast
1:53 PM 80.1 °F 81.1 °F 61.0 °F 52% 29.95 in 10.0 mi South 12.7 mph - N/A   Scattered Clouds
2:53 PM 82.0 °F 83.1 °F 63.0 °F 52% 29.94 in 10.0 mi South 9.2 mph 19.6 mph N/A   Mostly Cloudy
3:53 PM 80.1 °F 81.1 °F 61.0 °F 52% 29.93 in 10.0 mi SSW 11.5 mph - N/A   Overcast
4:53 PM 78.1 °F - 61.0 °F 56% 29.93 in 10.0 mi SSW 9.2 mph - N/A   Overcast
5:53 PM 79.0 °F - 63.0 °F 58% 29.92 in 10.0 mi South 10.4 mph - N/A   Overcast
6:53 PM 79.0 °F - 64.0 °F 60% 29.92 in 10.0 mi South 9.2 mph - N/A   Overcast
7:53 PM 77.0 °F - 64.0 °F 64% 29.92 in 10.0 mi South 8.1 mph - N/A   Mostly Cloudy
8:53 PM 73.0 °F - 64.0 °F 73% 29.92 in 10.0 mi South 5.8 mph - N/A   Scattered Clouds
9:53 PM 70.0 °F - 63.0 °F 78% 29.92 in 10.0 mi SSE 5.8 mph - N/A   Clear
10:53 PM 69.1 °F - 63.0 °F 81% 29.92 in 10.0 mi South 4.6 mph - N/A   Clear
11:53 PM 66.9 °F - 63.0 °F 87% 29.92 in 10.0 mi SSE 3.5 mph - N/A   Clear